TimeCST,TemperatureF,Dew PointF,Humidity,Sea Level PressureIn,VisibilityMPH,Wind Direction,Wind SpeedMPH,Gust SpeedMPH,PrecipitationIn,Events,Conditions,WindDirDegrees,DateUTC
12:55 AM,3.0,1.9,95,29.98,9.0,SSE,3.5,-,N/A,,Clear,160,2013-02-23 06:55:00
1:55 AM,7.0,3.9,87,29.96,9.0,Calm,Calm,-,N/A,,Clear,0,2013-02-23 07:55:00
2:55 AM,5.0,1.9,87,29.94,10.0,SE,3.5,-,N/A,,Clear,140,2013-02-23 08:55:00
3:55 AM,3.0,-0.0,87,29.93,9.0,Calm,Calm,-,N/A,,Clear,0,2013-02-23 09:55:00
4:55 AM,-0.0,-2.9,88,29.93,8.0,ESE,5.8,-,N/A,,Clear,120,2013-02-23 10:55:00
5:18 AM,-0.4,-2.2,92,29.84,6.0,ESE,5.8,-,N/A,,Scattered Clouds,120,2013-02-23 11:18:00
5:29 AM,-0.4,-2.2,92,29.84,5.0,SE,4.6,-,N/A,,Mostly Cloudy,130,2013-02-23 11:29:00
5:55 AM,-0.0,-2.0,91,29.93,4.0,SSE,3.5,-,N/A,,Overcast,160,2013-02-23 11:55:00
6:55 AM,1.0,-0.9,91,29.92,6.0,SE,4.6,-,N/A,,Mostly Cloudy,140,2013-02-23 12:55:00
7:55 AM,3.9,1.0,88,29.91,5.0,South,5.8,-,N/A,,Partly Cloudy,170,2013-02-23 13:55:00
8:55 AM,6.1,3.0,87,29.92,5.0,SSE,6.9,-,N/A,,Partly Cloudy,150,2013-02-23 14:55:00
9:55 AM,9.0,6.1,88,29.91,7.0,SE,5.8,-,N/A,,Clear,140,2013-02-23 15:55:00
10:55 AM,12.9,10.0,88,29.91,10.0,SSE,4.6,-,N/A,,Clear,160,2013-02-23 16:55:00
11:55 AM,15.1,10.9,84,29.90,10.0,SE,6.9,-,N/A,,Clear,140,2013-02-23 17:55:00
12:55 PM,18.0,12.9,81,29.89,10.0,SE,8.1,-,N/A,,Clear,130,2013-02-23 18:55:00
1:55 PM,21.0,14.0,74,29.88,10.0,SSE,8.1,-,N/A,,Clear,150,2013-02-23 19:55:00
2:55 PM,21.9,15.1,75,29.86,10.0,SE,8.1,-,N/A,,Clear,140,2013-02-23 20:55:00
3:55 PM,23.0,17.1,78,29.85,10.0,ESE,5.8,-,N/A,,Clear,110,2013-02-23 21:55:00
4:55 PM,23.0,17.1,78,29.87,10.0,ESE,5.8,-,N/A,,Clear,120,2013-02-23 22:55:00
5:55 PM,19.9,15.1,81,29.88,10.0,ESE,5.8,-,N/A,,Clear,120,2013-02-23 23:55:00
6:55 PM,16.0,12.9,88,29.90,10.0,East,5.8,-,N/A,,Clear,100,2013-02-24 00:55:00
7:55 PM,12.9,10.0,88,29.92,10.0,SE,3.5,-,N/A,,Clear,130,2013-02-24 01:55:00
8:55 PM,10.0,8.1,92,29.93,8.0,ESE,4.6,-,N/A,,Clear,110,2013-02-24 02:55:00
9:55 PM,9.0,7.0,92,29.95,8.0,Calm,Calm,-,N/A,,Clear,0,2013-02-24 03:55:00
10:55 PM,6.1,3.9,91,29.94,8.0,East,5.8,-,N/A,,Clear,90,2013-02-24 04:55:00
11:55 PM,8.1,3.9,83,29.95,9.0,East,3.5,-,N/A,,Clear,100,2013-02-24 05:55:00